TimeCDT,TemperatureF,Dew PointF,Humidity,Sea Level PressureIn,VisibilityMPH,Wind Direction,Wind SpeedMPH,Gust SpeedMPH,PrecipitationIn,Events,Conditions,WindDirDegrees,DateUTC
12:53 AM,52.0,42.1,69,30.01,10.0,SSE,9.2,-,N/A,,Clear,160,2012-09-19 05:53:00
1:53 AM,54.0,42.1,64,30.01,10.0,South,10.4,-,N/A,,Clear,170,2012-09-19 06:53:00
2:53 AM,55.0,42.1,62,29.99,10.0,South,12.7,-,N/A,,Clear,170,2012-09-19 07:53:00
3:53 AM,53.1,42.1,66,29.99,10.0,South,12.7,-,N/A,,Clear,170,2012-09-19 08:53:00
4:53 AM,54.0,43.0,66,29.98,10.0,South,13.8,-,N/A,,Clear,180,2012-09-19 09:53:00
5:53 AM,55.9,43.0,62,29.97,10.0,South,13.8,-,N/A,,Clear,180,2012-09-19 10:53:00
6:53 AM,55.0,44.1,67,29.97,10.0,South,15.0,-,N/A,,Clear,180,2012-09-19 11:53:00
7:53 AM,59.0,46.0,62,29.97,10.0,South,19.6,26.5,N/A,,Partly Cloudy,190,2012-09-19 12:53:00
8:53 AM,63.0,46.0,54,29.95,10.0,South,23.0,29.9,N/A,,Partly Cloudy,190,2012-09-19 13:53:00
9:53 AM,68.0,46.0,45,29.96,10.0,SSW,24.2,38.0,N/A,,Partly Cloudy,210,2012-09-19 14:53:00
10:53 AM,70.0,48.9,47,29.95,10.0,SSW,15.0,24.2,N/A,,Mostly Cloudy,210,2012-09-19 15:53:00
11:53 AM,73.0,48.0,41,29.93,10.0,SSW,19.6,29.9,N/A,,Mostly Cloudy,210,2012-09-19 16:53:00
12:53 PM,77.0,50.0,39,29.91,10.0,SSW,20.7,27.6,N/A,,Mostly Cloudy,210,2012-09-19 17:53:00
1:53 PM,80.1,50.0,35,29.89,10.0,South,20.7,27.6,N/A,,Mostly Cloudy,190,2012-09-19 18:53:00
2:53 PM,81.0,48.9,33,29.87,10.0,SW,19.6,27.6,N/A,,Mostly Cloudy,220,2012-09-19 19:53:00
3:53 PM,82.9,50.0,32,29.85,9.0,SSW,19.6,27.6,N/A,,Mostly Cloudy,210,2012-09-19 20:53:00
4:53 PM,81.0,50.0,34,29.84,10.0,SSW,18.4,26.5,N/A,,Mostly Cloudy,210,2012-09-19 21:53:00
5:53 PM,80.1,51.1,36,29.83,10.0,SSW,18.4,26.5,N/A,,Mostly Cloudy,200,2012-09-19 22:53:00
6:53 PM,78.1,51.1,39,29.83,10.0,SSW,12.7,-,N/A,,Scattered Clouds,200,2012-09-19 23:53:00
7:53 PM,71.6,51.8,50,29.86,10.0,SSW,9.2,-,N/A,,Scattered Clouds,200,2012-09-20 00:53:00
8:53 PM,71.1,52.0,51,29.88,10.0,SW,5.8,-,N/A,,Scattered Clouds,230,2012-09-20 01:53:00
9:53 PM,71.1,53.1,53,29.92,10.0,West,3.5,-,N/A,,Overcast,280,2012-09-20 02:53:00
10:53 PM,72.0,48.9,44,29.93,10.0,North,5.8,-,N/A,,Overcast,10,2012-09-20 03:53:00
11:53 PM,69.1,45.0,42,29.96,10.0,NNE,13.8,18.4,0.00,,Overcast,20,2012-09-20 04:53:00